Weather reports worldwide

Advertisment
Nürburg/Barweiler, Germany (10506): temperature & dewpoint: 20.03.2019 08:00:00 - 26.03.2019 08:00:00 (CET)Nürburg/Barweiler, Germany (10506): temperature 5cm & temperature -5cm: 20.03.2019 08:00:00 - 26.03.2019 08:00:00 (CET)Nürburg/Barweiler, Germany (10506): temperature -20cm & temperature -100cm: 20.03.2019 08:00:00 - 26.03.2019 08:00:00 (CET)Nürburg/Barweiler, Germany (10506): wind speed & gusts: 20.03.2019 08:00:00 - 26.03.2019 08:00:00 (CET)Nürburg/Barweiler, Germany (10506): wind direction: 20.03.2019 08:00:00 - 26.03.2019 08:00:00 (CET)Nürburg/Barweiler, Germany (10506): reduced air pressure: 20.03.2019 08:00:00 - 26.03.2019 08:00:00 (CET)Nürburg/Barweiler, Germany (10506): visibility: 20.03.2019 08:00:00 - 26.03.2019 08:00:00 (CET)Nürburg/Barweiler, Germany (10506): sunshine duration: 20.03.2019 08:00:00 - 26.03.2019 08:00:00 (CET)Nürburg/Barweiler, Germany (10506): precipitation: 20.03.2019 08:00:00 - 26.03.2019 08:00:00 (CET)
Date & Time tt [°C] td [°C] tt 5cm [°C] tt -5cm [°C] tt -20cm [°C] tt -100cm [°C] ff [km/h] ff [kn] fx [km/h] fx [kn] dd ppp [hPa] vv [km] sd [min] rr [mm]
26.03.2019 08:00:00 2,1 -1,1 1,9 2,4 4,4 6,3 11 6 21 11 NNW 1032,1 47 0 0,0
26.03.2019 07:00:00 1,8 -1,3 1,3 2,3 4,4 6,3 13 7 23 12 N 1031,8 33 0 0,0
26.03.2019 06:00:00 1,7 -0,7 1,2 2,4 4,5 6,3 6 4 22 12 NNW 1031,8 32 0 0,0
26.03.2019 05:00:00 1,9 -0,1 1,3 2,5 4,6 6,3 12 6 23 12 NNW 1031,4 28 0 0,0
26.03.2019 04:00:00 2,1 0,4 1,7 2,6 4,6 6,3 14 7 26 14 NNW 1031,1 23 0 0,0
26.03.2019 03:00:00 2,2 0,7 1,8 2,7 4,7 6,3 15 8 29 16 NNW 1030,9 20 0 0,0
26.03.2019 02:00:00 2,4 0,9 1,7 2,8 4,8 6,3 18 10 30 16 NNW 1030,5 19 0 0,0
26.03.2019 01:00:00 2,6 0,9 1,9 2,7 4,9 6,3 14 7 34 18 NNW 1030,4 17 0 0,0
26.03.2019 00:00:00 2,9 0,9 2,1 2,7 5,0 6,3 22 12 34 18 N 1029,9 18 0 0,0
25.03.2019 23:00:00 3,1 0,5 1,9 2,7 5,1 6,3 19 10 40 22 N 1029,0 34 0 0,0
25.03.2019 22:00:00 3,0 0,5 1,4 3,0 5,2 6,3 23 12 42 23 NNW 1028,4 38 0 0,0
25.03.2019 21:00:00 2,9 1,0 1,5 3,5 5,3 6,2 22 12 39 21 NNW 1027,5 33 0 0,0
25.03.2019 20:00:00 3,2 2,1 2,0 3,9 5,3 6,2 24 13 42 23 NNW 1026,7 23 0 0,0
25.03.2019 19:00:00 3,3 2,1 2,6 4,7 5,3 6,2 23 13 42 23 NNW 1025,8 25 6 0,6
25.03.2019 18:00:00 3,6 2,2 3,7 5,3 5,2 6,2 20 11 52 28 NW 1025,0 30 13 0,7
25.03.2019 17:00:00 4,3 1,8 3,7 6,2 5,2 6,2 21 12 44 24 WNW 1023,8 23 23 0,0
25.03.2019 16:00:00 3,6 1,6 5,3 5,2 5,1 6,2 13 7 41 22 NW 1024,1 29 15 0,9
25.03.2019 15:00:00 3,7 1,1 3,8 6,1 5,0 6,2 13 7 57 31 NW 1024,0 43 13 0,1
25.03.2019 14:00:00 4,7 1,6 5,9 5,2 4,9 6,2 23 13 48 26 NNW 1023,5 25 29 2,0
25.03.2019 13:00:00 2,1 -0,9 1,4 6,1 4,8 6,2 23 12 54 29 N 1024,2 7 16 0,0
25.03.2019 12:00:00 4,8 -1,2 5,3 5,8 4,6 6,2 31 17 51 28 WNW 1023,2 33 13 0,0
25.03.2019 11:00:00 4,1 0,8 4,3 5,3 4,5 6,2 24 13 48 26 W 1023,1 24 20 0,0
25.03.2019 10:00:00 3,7 -1,5 4,0 4,4 4,5 6,2 20 11 42 23 WNW 1023,0 30 17 0,0
25.03.2019 09:00:00 3,4 -0,9 3,8 3,2 4,5 6,2 22 12 37 20 NW 1022,9 29 10 0,0
25.03.2019 08:00:00 2,8 0,1 2,0 2,1 4,6 6,2 18 10 35 19 NW 1022,4 21 0 0,0
25.03.2019 07:00:00 2,4 -0,2 1,7 1,6 4,8 6,2 16 8 25 13 W 1021,8 19 0 0,0
25.03.2019 06:00:00 2,3 -1,0 1,7 1,0 4,9 6,2 16 9 26 14 W 1022,2 27 0 0,0
25.03.2019 05:00:00 1,5 -1,8 0,7 0,9 5,1 6,2 11 6 21 12 W 1022,7 26 0 0,0
25.03.2019 04:00:00 0,5 -2,4 -1,4 1,0 5,4 6,2 11 6 21 12 WSW 1023,5 23 0 0,0
25.03.2019 03:00:00 1,1 -2,3 -0,9 1,1 5,6 6,2 13 7 20 11 WSW 1024,1 28 0 0,0
25.03.2019 02:00:00 0,9 -2,4 -1,4 1,3 5,9 6,2 9 5 14 8 WSW 1024,7 34 0 0,0
25.03.2019 01:00:00 0,9 -2,5 -1,9 1,5 6,1 6,2 7 4 12 7 WSW 1025,5 33 0 0,0
25.03.2019 00:00:00 1,3 -2,5 -1,1 2,0 6,4 6,2 8 4 11 6 WSW 1026,1 34 0 0,0
24.03.2019 23:00:00 2,1 -2,3 -0,7 2,6 6,6 6,2 8 4 11 6 W 1026,3 39 0 0,0
24.03.2019 22:00:00 3,2 -1,6 -0,7 3,3 6,9 6,2 5 3 8 5 W 1026,0 35 0 0,0
24.03.2019 21:00:00 3,8 -1,3 -0,6 4,1 7,1 6,2 5 3 16 9 NW 1026,2 42 0 0,0
24.03.2019 20:00:00 4,6 -1,3 1,8 5,2 7,2 6,2 11 6 18 10 N 1026,2 42 0 0,0
24.03.2019 19:00:00 5,8 -0,9 3,1 6,6 7,2 6,2 12 6 19 11 N 1025,6 42 40 0,0
24.03.2019 18:00:00 7,5 0,5 6,1 8,2 7,1 6,2 13 7 25 13 NNW 1025,1 30 54 0,0
24.03.2019 17:00:00 7,8 1,6 8,1 9,3 7,0 6,2 16 9 30 16 N 1025,4 23 16 0,0
24.03.2019 16:00:00 9,0 2,1 10,0 10,1 6,8 6,2 13 7 27 14 NNW 1025,3 20 27 0,0
24.03.2019 15:00:00 8,3 3,4 10,6 9,8 6,7 6,1 6 4 21 11 NW 1025,6 10 2 0,0
24.03.2019 14:00:00 7,1 4,2 8,5 9,1 6,5 6,1 11 6 24 13 N 1026,4 9 0 0,0
24.03.2019 13:00:00 6,7 4,4 7,2 8,7 6,3 6,1 15 8 27 15 NNW 1027,0 8 0 0,0
24.03.2019 12:00:00 7,5 4,0 8,0 9,4 6,1 6,1 10 5 20 11 N 1026,8 9 0 0,0
24.03.2019 11:00:00 7,7 4,2 9,4 9,1 5,9 6,1 6 3 13 7 NE 1026,2 10 6 0,0
24.03.2019 10:00:00 7,0 5,3 9,5 7,9 5,8 6,1 5 3 10 5 ENE 1026,7 4,8 3 0,0
24.03.2019 09:00:00 5,6 5,4 6,5 6,5 5,8 6,1 5 3 10 5 ENE 1027,7 1,7 0 0,0
24.03.2019 08:00:00 4,6 4,5 4,9 5,2 5,9 6,1 3 1 10 5 NE 1028,0 0,1 0 0,0
24.03.2019 07:00:00 4,7 4,5 4,6 5,0 5,9 6,1 7 4 11 6 NE 1027,9 0,3 0 0,0
24.03.2019 06:00:00 4,4 4,4 4,4 4,9 5,9 6,1 6 3 11 6 NE 1028,0 0,1 0 0,0
24.03.2019 05:00:00 4,2 4,2 4,2 4,9 6,0 6,1 8 4 13 7 NE 1028,2 0,1 0 0,0
24.03.2019 04:00:00 4,1 4,1 4,0 4,9 6,0 6,1 7 4 11 6 NNE 1028,5 0,1 0 0,0
24.03.2019 03:00:00 4,0 4,0 4,0 4,8 6,1 6,1 4 2 9 5 ENE 1029,0 0,1 0 0,0
24.03.2019 02:00:00 4,7 4,5 4,2 4,5 6,2 6,1 4 2 8 4 N 1029,2 0,1 0 0,0
24.03.2019 01:00:00 4,8 4,5 2,4 5,0 6,3 6,1 2 1 13 7 NE 1029,6 0,8 0 0,0
24.03.2019 00:00:00 5,3 4,6 4,9 5,2 6,4 6,1 7 4 14 8 NE 1029,9 1,7 0 0,0
23.03.2019 23:00:00 5,3 4,5 4,9 5,0 6,5 6,1 8 4 13 7 NE 1030,4 1,9 0 0,0
23.03.2019 22:00:00 5,0 3,6 3,7 4,7 6,7 6,1 6 3 10 6 NE 1030,9 2,8 0 0,0
23.03.2019 21:00:00 5,2 2,9 2,7 5,0 6,8 6,0 7 4 17 9 NNE 1030,9 3,7 0 0,0
23.03.2019 20:00:00 5,3 2,6 1,7 5,5 6,9 6,0 5 3 10 5 NNE 1030,8 4,7 0 0,0
23.03.2019 19:00:00 5,6 2,3 2,9 6,8 6,9 6,0 5 3 23 12 NE 1030,6 5 0 0,0
23.03.2019 18:00:00 6,8 2,5 6,3 8,0 6,7 6,0 13 7 28 15 NNE 1030,3 6 0 0,0
23.03.2019 17:00:00 7,4 2,9 8,0 9,2 6,6 6,0 16 9 31 17 N 1030,1 5 5 0,0
23.03.2019 16:00:00 7,5 2,9 8,9 9,6 6,3 6,0 18 10 29 15 N 1030,3 4,6 8 0,0
23.03.2019 15:00:00 6,8 2,9 8,6 9,5 6,1 6,0 20 11 28 15 N 1030,8 4,5 1 0,0
23.03.2019 14:00:00 6,4 3,2 9,3 9,7 5,9 6,0 15 8 23 12 N 1030,8 7 5 0,0
23.03.2019 13:00:00 6,1 4,0 8,9 8,1 5,7 6,0 8 5 16 9 N 1030,6 6 0 0,0
23.03.2019 12:00:00 4,6 4,3 6,6 6,7 5,6 6,0 5 3 14 7 NNE 1030,9 3,0 0 0,0
23.03.2019 11:00:00 3,9 3,9 5,3 5,9 5,6 6,0 9 5 14 8 N 1031,2 0,5 0 0,0
23.03.2019 10:00:00 3,5 3,5 4,9 5,2 5,6 6,0 8 5 13 7 N 1031,0 0,1 0 0,0
23.03.2019 09:00:00 2,4 2,3 3,6 4,1 5,7 6,0 6 3 10 5 NNW 1030,7 0,1 0 0,0
23.03.2019 08:00:00 2,3 2,1 2,6 2,7 5,9 6,0 7 4 16 9 NNE 1030,5 0,1 0 0,0
23.03.2019 07:00:00 2,4 0,0 -0,6 2,1 6,1 6,0 4 2 6 4 NE 1030,0 15 0 0,0
23.03.2019 06:00:00 2,1 -0,2 -1,0 2,5 6,4 5,9 3 2 8 4 N 1029,9 17 0 0,0
23.03.2019 05:00:00 4,0 -0,3 0,4 3,0 6,6 5,9 3 2 9 5 WSW 1029,0 17 0 0,0
23.03.2019 04:00:00 4,7 0,1 0,4 3,4 6,8 5,9 4 2 6 3 W 1028,9 22 0 0,0
23.03.2019 03:00:00 6,2 0,1 2,9 3,8 7,0 5,9 3 1 5 3 ESE 1028,6 28 0 0,0
23.03.2019 02:00:00 8,2 0,3 4,2 4,3 7,3 5,9 6 3 9 5 SSW 1028,0 26 0 0,0
23.03.2019 01:00:00 7,8 0,2 2,0 4,7 7,5 5,9 5 3 9 5 S 1028,3 28 0 0,0
23.03.2019 00:00:00 9,0 0,1 4,7 5,3 7,7 5,9 6 4 9 5 SSW 1028,2 30 0 0,0
22.03.2019 23:00:00 9,5 -0,4 5,5 5,9 7,9 5,9 6 3 10 6 S 1028,3 40 0 0,0
22.03.2019 22:00:00 10,4 -0,5 5,7 6,5 8,1 5,9 7 4 10 5 S 1028,1 42 0 0,0
22.03.2019 21:00:00 11,6 -0,8 6,6 7,4 8,3 5,9 4 2 14 8 SSE 1027,8 37 0 0,0
22.03.2019 20:00:00 11,5 -0,4 6,5 8,4 8,3 5,9 7 4 14 8 SSE 1027,6 42 0 0,0
22.03.2019 19:00:00 13,5 -0,3 8,8 9,9 8,3 5,9 9 5 18 10 SE 1026,9 50 40 0,0
22.03.2019 18:00:00 15,3 -0,6 12,0 11,5 8,1 5,9 10 5 22 12 SSE 1026,4 45 60 0,0
22.03.2019 17:00:00 16,3 -2,8 16,4 12,9 7,8 5,9 13 7 22 12 SE 1026,6 51 59 0,0
22.03.2019 16:00:00 16,5 -3,2 18,3 13,7 7,3 5,9 12 7 26 14 SE 1026,8 55 60 0,0
22.03.2019 15:00:00 16,2 0,4 17,8 14,6 6,9 5,9 11 6 23 13 SSE 1027,4 41 60 0,0
22.03.2019 14:00:00 15,7 0,5 17,5 14,5 6,4 5,9 10 5 24 13 SE 1028,2 39 60 0,0
22.03.2019 13:00:00 15,4 -1,8 17,2 13,4 5,9 5,9 13 7 22 12 SE 1029,0 30 60 0,0
22.03.2019 12:00:00 15,4 -0,3 16,8 12,7 5,4 5,9 8 5 18 10 SSE 1029,5 47 60 0,0
22.03.2019 11:00:00 14,0 0,2 15,0 10,7 5,1 5,9 7 4 19 10 SE 1030,1 38 60 0,0
22.03.2019 10:00:00 11,9 1,8 12,2 8,1 5,0 5,9 5 3 13 7 NE 1030,8 39 60 0,0
22.03.2019 09:00:00 7,3 0,5 7,6 5,3 5,1 5,9 2 1 4 2 NW 1031,7 22 60 0,0
22.03.2019 08:00:00 5,3 1,3 5,1 2,8 5,3 5,9 0 0 6 4 N 1032,0 11 57 0,0
22.03.2019 07:00:00 2,6 0,8 -0,3 1,8 5,5 5,9 3 2 9 5 W 1032,5 18 0 0,0
22.03.2019 06:00:00 2,7 0,0 0,0 2,1 5,7 5,9 6 3 11 6 S 1032,4 23 0 0,0
22.03.2019 05:00:00 3,1 0,7 -0,1 2,4 5,9 5,9 3 1 8 5 SE 1032,4 18 0 0,0
22.03.2019 04:00:00 3,7 0,9 0,7 2,8 6,1 5,9 5 3 6 4 SW 1032,7 27 0 0,0
22.03.2019 03:00:00 4,8 1,6 0,7 3,2 6,4 5,9 3 1 4 2 W 1032,5 30 0 0,0
22.03.2019 02:00:00 5,6 1,5 0,7 3,6 6,6 5,9 3 2 6 3 WSW 1032,7 33 0 0,0
22.03.2019 01:00:00 5,5 0,9 1,1 4,1 6,8 5,8 3 2 8 4 WSW 1033,1 34 0 0,0
22.03.2019 00:00:00 6,6 1,5 1,7 4,7 7,0 5,8 4 2 6 4 SW 1033,2 35 0 0,0
21.03.2019 23:00:00 7,8 1,5 2,7 5,3 7,2 5,8 2 1 6 3 ENE 1033,2 46 0 0,0
21.03.2019 22:00:00 8,4 1,4 3,7 6,0 7,4 5,8 5 3 6 4 ENE 1033,3 48 0 0,0
21.03.2019 21:00:00 9,4 1,3 4,2 6,8 7,5 5,8 3 2 8 4 ENE 1033,0 51 0 0,0
21.03.2019 20:00:00 9,9 0,8 5,1 7,8 7,6 5,8 5 3 9 5 ENE 1032,8 55 0 0,0
21.03.2019 19:00:00 10,8 0,5 6,0 9,2 7,5 5,9 5 3 13 7 NE 1032,3 59 37 0,0
21.03.2019 18:00:00 12,5 0,5 10,2 10,9 7,2 5,9 11 6 17 9 ENE 1031,8 57 60 0,0
21.03.2019 17:00:00 13,6 -1,8 14,7 12,5 6,9 5,9 10 6 18 10 E 1031,7 47 59 0,0
21.03.2019 16:00:00 14,2 -1,7 16,3 13,4 6,4 5,9 9 5 19 10 ESE 1031,8 50 60 0,0
21.03.2019 15:00:00 14,0 -1,7 16,8 14,0 5,9 5,9 9 5 19 10 E 1032,3 35 60 0,0
21.03.2019 14:00:00 13,9 -0,8 15,7 13,6 5,3 5,9 5 3 21 11 ENE 1032,9 37 60 0,0
21.03.2019 13:00:00 12,7 -2,0 15,1 12,7 4,8 5,9 9 5 18 10 E 1033,7 38 60 0,0
21.03.2019 12:00:00 12,0 -1,2 13,9 11,2 4,4 5,9 9 5 18 10 E 1034,2 36 60 0,0
21.03.2019 11:00:00 9,8 1,0 11,7 9,1 4,2 5,9 5 3 9 5 NW 1034,9 34 60 0,0
21.03.2019 10:00:00 6,7 2,3 8,4 6,3 4,1 5,8 2 1 6 3 NNW 1035,6 29 60 0,0
21.03.2019 09:00:00 3,9 0,9 3,9 3,4 4,2 5,8 4 2 8 4 WSW 1036,3 18 60 0,0
21.03.2019 08:00:00 2,0 0,1 1,3 1,4 4,3 5,8 4 2 8 4 SSW 1036,6 14 54 0,0
21.03.2019 07:00:00 1,6 0,7 -0,3 0,9 4,5 5,8 6 3 8 4 SSW 1036,4 14 0 0,0
21.03.2019 06:00:00 0,7 -0,1 -2,0 1,0 4,7 5,8 2 1 5 3 W 1036,4 9 0 0,0
21.03.2019 05:00:00 1,3 0,3 -1,5 1,4 4,9 5,8 3 1 8 4 SSW 1036,1 13 0 0,0
21.03.2019 04:00:00 3,3 1,0 0,9 1,7 5,1 5,8 2 1 5 3 SW 1035,6 28 0 0,0
21.03.2019 03:00:00 2,7 0,7 -0,6 2,0 5,3 5,8 4 2 6 3 WSW 1036,0 38 0 0,0
21.03.2019 02:00:00 2,6 0,5 -0,6 2,4 5,5 5,8 4 2 6 3 SSW 1036,3 37 0 0,0
21.03.2019 01:00:00 2,8 0,8 -0,6 2,8 5,7 5,8 3 2 6 3 SW 1036,3 42 0 0,0
21.03.2019 00:00:00 4,1 0,9 0,5 3,3 5,9 5,8 4 2 7 4 W 1036,2 27 0 0,0
20.03.2019 23:00:00 5,6 1,0 2,3 3,8 6,1 5,8 4 2 5 3 SW 1036,0 27 0 0,0
20.03.2019 22:00:00 5,7 0,8 2,1 4,5 6,3 5,8 2 1 5 3 SSW 1035,8 29 0 0,0
20.03.2019 21:00:00 7,0 0,9 2,5 5,3 6,4 5,8 4 2 7 4 E 1035,3 67 0 0,0
20.03.2019 20:00:00 7,2 0,8 3,0 6,2 6,4 5,8 6 3 8 5 E 1035,0 70 0 0,0
20.03.2019 19:00:00 7,7 0,9 4,1 7,5 6,4 5,9 5 3 10 5 ENE 1034,6 70 30 0,0
20.03.2019 18:00:00 8,9 0,8 6,7 8,9 6,2 5,9 6 3 14 8 NNE 1034,1 70 27 0,0
20.03.2019 17:00:00 9,5 0,5 8,8 10,6 5,8 5,9 9 5 18 10 N 1033,9 70 39 0,0
20.03.2019 16:00:00 10,3 0,1 11,8 11,3 5,3 5,9 9 5 16 9 NW 1033,7 59 25 0,0
20.03.2019 15:00:00 10,6 -0,7 13,6 12,3 4,8 5,9 4 2 18 10 ESE 1033,6 54 51 0,0
20.03.2019 14:00:00 10,2 -0,7 13,2 11,8 4,3 5,9 6 3 14 8 SSW 1034,0 57 58 0,0
20.03.2019 13:00:00 9,7 -1,0 13,0 10,7 3,8 5,9 5 3 15 8 NNW 1034,3 44 60 0,0
20.03.2019 12:00:00 9,2 -0,5 11,2 8,4 3,6 5,9 5 3 14 7 SSW 1034,5 34 60 0,0
20.03.2019 11:00:00 7,3 -0,6 8,7 5,8 3,5 5,9 8 5 13 7 WSW 1035,0 18 60 0,0
20.03.2019 10:00:00 4,8 0,0 5,7 3,5 3,5 5,9 5 3 9 5 WSW 1035,2 30 60 0,0
20.03.2019 09:00:00 3,8 -2,0 2,7 0,7 3,6 5,9 5 3 9 5 S 1035,0 33 60 0,0
20.03.2019 08:00:00 0,8 -2,8 0,3 0,5 3,8 5,9 5 3 9 5 SSW 1035,2 23 52 0,0

tt = temperature
td = dewpoint
tt 5cm = temperature 5cm
tt -5cm = temperature -5cm
tt -20cm = temperature -20cm
tt -100cm = temperature -100cm
ff = wind speed
fx = gusts
dd = wind direction
ppp = reduced air pressure
vv = visibility
sd = sunshine duration
rr = precipitation

Next stations